CYRQ

Trois-Rivières Airport

Airport
ICAO code
CYRQ
IATA Code
YRQ
Summary
ICAO Region
NAM
ICAO Territory
Location

Trois-Rivières, Quebec

Serving
Trois-Rivières
Elevation
199 ft
Coordinates
46° 21' 6" N , 72° 40' 50" W
KCC
Metar
CYRQ 040900Z AUTO 05009KT 9SM OVC048 03/01 A3036 RMK SLP285

Trois-Rivières Airport is located near the city of Trois-Rivières, Quebec, Canada.

Climatology

Humid continental climate (Köppen climate classification Dfb)

Runways

Designator Length Width Surface Rops
5/23 1829 46 ASP No/No

Airport map

Aerial View

SKYbrary Partners:

Safety knowledge contributed by: